GW2746 Weather Reports


Display with metric or nautical units.
time (UTC)temp
F
wind
direction
speed
MPH
gust
MPH
rain 1hr
in
rain 24hr
in
rain mn
in
humidity
%
barometer
mb
20260903111153 78 202 0.0 6.0 0.00 0.00 0.00 76 1010.4
20260903110619 78 177 2.0 6.0 0.00 0.00 0.00 77 1010.4
20260903110142 77 167 1.0 4.0 0.00 0.00 0.00 78 1010.4
20260903105625 77 233 1.0 2.0 0.00 0.00 0.00 78 1010.4
20260903105122 77 233 0.0 1.0 0.00 0.00 0.00 78 1010.4
20260903104646 78 233 0.0 0.0 0.00 0.00 0.00 79 1010.5
20260903104124 78 233 0.0 0.0 0.00 0.00 0.00 79 1010.6
20260903103628 78 233 0.0 2.0 0.00 0.00 0.00 78 1010.6
20260903103127 79 233 0.0 3.0 0.00 0.00 0.00 76 1010.7
20260903102631 79 233 2.0 5.0 0.00 0.00 0.00 74 1010.7
20260903102129 80 225 0.0 6.0 0.00 0.00 0.00 73 1010.7
20260903101631 80 253 2.0 8.0 0.00 0.00 0.00 70 1010.7
20260903101153 81 256 4.0 8.0 0.00 0.00 0.00 69 1010.6
20260903100623 81 307 2.0 6.0 0.00 0.00 0.00 69 1010.4
20260903100122 81 163 4.0 10.0 0.00 0.00 0.00 69 1010.3
20260903095627 81 172 4.0 10.0 0.00 0.00 0.00 69 1010.2
20260903095149 81 220 3.0 7.0 0.00 0.00 0.00 69 1010.1
20260903094615 80 241 2.0 6.0 0.00 0.00 0.00 68 1010.1
20260903094135 81 231 2.0 7.0 0.00 0.00 0.00 69 1010.1
20260903093617 81 192 3.0 7.0 0.00 0.00 0.00 69 1010.1
20260903093135 81 333 3.0 7.0 0.00 0.00 0.00 69 1010.2
20260903092619 81 227 1.0 7.0 0.00 0.00 0.00 69 1010.2
20260903092119 81 194 2.0 8.0 0.00 0.00 0.00 69 1010.2
20260903091627 81 247 2.0 8.0 0.00 0.00 0.00 69 1010.2
20260903091126 81 170 4.0 7.0 0.00 0.00 0.00 69 1010.3
20260903090650 81 175 1.0 10.0 0.00 0.00 0.00 69 1010.2
20260903090129 81 132 1.0 10.0 0.00 0.00 0.00 68 1010.2
20260903085636 81 220 1.0 8.0 0.00 0.00 0.00 68 1010.3
20260903085114 81 127 2.0 9.0 0.00 0.00 0.00 67 1010.3
20260903084640 81 212 2.0 9.0 0.00 0.00 0.00 67 1010.4
20260903084138 81 175 5.0 9.0 0.00 0.00 0.00 67 1010.3
20260903083624 81 241 3.0 8.0 0.00 0.00 0.00 67 1010.3
20260903083123 81 198 4.0 8.0 0.00 0.00 0.00 67 1010.4
20260903082655 82 282 1.0 8.0 0.00 0.00 0.00 67 1010.4
20260903082132 82 180 2.0 8.0 0.00 0.00 0.00 67 1010.3
20260903081636 82 136 3.0 8.0 0.00 0.00 0.00 67 1010.2
20260903081152 82 185 1.0 8.0 0.00 0.00 0.00 67 1010.3
20260903080654 82 190 2.0 11.0 0.00 0.00 0.00 67 1010.3
20260903080152 82 237 3.0 11.0 0.00 0.00 0.00 67 1010.3
20260903075614 82 165 2.0 9.0 0.00 0.00 0.00 67 1010.3
20260903075135 82 140 2.0 9.0 0.00 0.00 0.00 67 1010.3
20260903074619 82 176 2.0 7.0 0.00 0.00 0.00 67 1010.4
20260903074137 82 215 4.0 7.0 0.00 0.00 0.00 67 1010.3
20260903073620 82 248 3.0 11.0 0.00 0.00 0.00 67 1010.4
20260903073117 82 208 2.0 11.0 0.00 0.00 0.00 67 1010.3
20260903072627 82 244 2.0 10.0 0.00 0.00 0.00 67 1010.4
20260903072125 82 161 6.0 10.0 0.00 0.00 0.00 67 1010.3
20260903071654 82 252 4.0 9.0 0.00 0.00 0.00 67 1010.4
20260903071135 82 277 4.0 9.0 0.00 0.00 0.00 67 1010.4
20260903070639 82 177 3.0 13.0 0.00 0.00 0.00 67 1010.4
20260903070118 82 177 5.0 13.0 0.00 0.00 0.00 67 1010.4
20260903065642 82 254 4.0 11.0 0.00 0.00 0.00 68 1010.4
20260903065119 82 228 2.0 9.0 0.00 0.00 0.00 68 1010.4
20260903064622 82 211 3.0 9.0 0.00 0.00 0.00 68 1010.4
20260903064119 83 208 5.0 10.0 0.00 0.00 0.00 67 1010.4
20260903063623 84 192 6.0 10.0 0.00 0.00 0.00 65 1010.4
20260903063121 84 227 5.0 10.0 0.00 0.00 0.00 64 1010.4
20260903062625 84 221 2.0 8.0 0.00 0.00 0.00 64 1010.5
20260903062123 84 203 4.0 8.0 0.00 0.00 0.00 64 1010.5
20260903061627 84 230 6.0 8.0 0.00 0.00 0.00 63 1010.4
20260903061148 84 202 4.0 9.0 0.00 0.00 0.00 63 1010.5
20260903060633 84 250 5.0 11.0 0.00 0.00 0.00 63 1010.5
20260903060116 84 158 5.0 11.0 0.00 0.00 0.00 62 1010.5
20260903055642 84 215 4.0 9.0 0.00 0.00 0.00 62 1010.5
20260903055139 84 198 4.0 14.0 0.00 0.00 0.00 62 1010.6
20260903054622 84 276 2.0 8.0 0.00 0.00 0.00 62 1010.6
20260903054121 85 147 4.0 9.0 0.00 0.00 0.00 62 1010.5
20260903053624 85 164 4.0 9.0 0.00 0.00 0.00 62 1010.5
20260903053122 85 293 3.0 10.0 0.00 0.00 0.00 62 1010.5
20260903052627 85 173 3.0 12.0 0.00 0.00 0.00 62 1010.5
20260903052128 85 233 4.0 12.0 0.00 0.00 0.00 62 1010.5
20260903051652 85 160 2.0 7.0 0.00 0.00 0.00 61 1010.4
20260903051130 85 198 3.0 7.0 0.00 0.00 0.00 61 1010.5
20260903050635 85 209 3.0 7.0 0.00 0.00 0.00 61 1010.5
20260903050133 85 175 3.0 7.0 0.00 0.00 0.00 61 1010.5
20260903045625 85 254 2.0 10.0 0.00 0.00 0.00 61 1010.5
20260903045127 86 189 4.0 10.0 0.00 0.00 0.00 60 1010.6
20260903044654 86 184 3.0 11.0 0.00 0.00 0.00 60 1010.6
20260903044133 86 192 5.0 11.0 0.00 0.00 0.00 60 1010.6
20260903043642 86 196 3.0 9.0 0.00 0.00 0.00 60 1010.6
20260903043145 86 208 6.0 9.0 0.00 0.00 0.00 59 1010.5
20260903042629 86 153 5.0 9.0 0.00 0.00 0.00 59 1010.4
20260903042134 86 189 4.0 10.0 0.00 0.00 0.00 59 1010.5
20260903041657 86 175 3.0 10.0 0.00 0.00 0.00 59 1010.5
20260903041135 87 89 3.0 9.0 0.00 0.00 0.00 58 1010.5
20260903040618 87 229 2.0 9.0 0.00 0.00 0.00 58 1010.5
20260903040137 87 221 3.0 8.0 0.00 0.00 0.00 58 1010.5
20260903035621 87 191 4.0 10.0 0.00 0.00 0.00 58 1010.5
20260903035118 87 245 3.0 10.0 0.00 0.00 0.00 58 1010.5
20260903034621 87 200 3.0 11.0 0.00 0.00 0.00 57 1010.3
20260903034120 87 237 5.0 11.0 0.00 0.00 0.00 57 1010.4
20260903033623 88 177 2.0 10.0 0.00 0.00 0.00 57 1010.3
20260903033121 88 173 4.0 10.0 0.00 0.00 0.00 57 1010.3
20260903032651 88 173 2.0 10.0 0.00 0.00 0.00 57 1010.4
20260903032127 88 186 3.0 8.0 0.00 0.00 0.00 56 1010.3
20260903031636 88 183 3.0 8.0 0.00 0.00 0.00 56 1010.3
20260903031132 88 207 1.0 6.0 0.00 0.00 0.00 56 1010.3
20260903030634 88 209 2.0 11.0 0.00 0.00 0.00 56 1010.4
20260903030115 88 207 3.0 7.0 0.00 0.00 0.00 56 1010.4
20260903025620 88 223 4.0 10.0 0.00 0.00 0.00 56 1010.3
20260903025118 88 173 5.0 10.0 0.00 0.00 0.00 56 1010.3
20260903024622 89 185 2.0 9.0 0.00 0.00 0.00 56 1010.3
20260903024120 89 137 5.0 9.0 0.00 0.00 0.00 56 1010.2
20260903023624 89 174 3.0 7.0 0.00 0.00 0.00 56 1010.3
20260903023124 89 181 3.0 6.0 0.00 0.00 0.00 55 1010.2
20260903022629 89 240 3.0 6.0 0.00 0.00 0.00 55 1010.1
20260903022126 89 179 4.0 6.0 0.00 0.00 0.00 54 1010.1
20260903021632 90 212 3.0 6.0 0.00 0.00 0.00 54 1010.1
20260903021136 90 196 1.0 7.0 0.00 0.00 0.00 53 1010.0
20260903020619 90 218 5.0 9.0 0.00 0.00 0.00 53 1009.9
20260903020119 90 208 1.0 9.0 0.00 0.00 0.00 53 1009.9
20260903015623 90 223 2.0 7.0 0.00 0.00 0.00 53 1009.8
20260903015145 91 115 2.0 7.0 0.00 0.00 0.00 53 1009.7
20260903014627 91 228 2.0 8.0 0.00 0.00 0.00 53 1009.7
20260903014124 91 176 4.0 7.0 0.00 0.00 0.00 53 1009.7
20260903013628 91 223 3.0 8.0 0.00 0.00 0.00 53 1009.7
20260903013143 91 197 5.0 9.0 0.00 0.00 0.00 54 1009.6
20260903012624 91 254 2.0 10.0 0.00 0.00 0.00 54 1009.5
20260903012125 92 166 4.0 10.0 0.00 0.00 0.00 53 1009.5
20260903011653 91 206 3.0 10.0 0.00 0.00 0.00 54 1009.5
20260903011131 91 256 1.0 6.0 0.00 0.00 0.00 54 1009.4
20260903010618 92 158 1.0 7.0 0.00 0.00 0.00 55 1009.5
20260903010156 92 229 2.0 8.0 0.00 0.00 0.00 54 1009.4
20260903005617 92 211 3.0 8.0 0.00 0.00 0.00 55 1009.5
20260903005117 92 185 1.0 5.0 0.00 0.00 0.00 55 1009.5
20260903004623 93 175 1.0 5.0 0.00 0.00 0.00 54 1009.5
20260903004122 93 179 2.0 5.0 0.00 0.00 0.00 54 1009.5
20260903003630 93 189 2.0 5.0 0.00 0.00 0.00 53 1009.6
20260903003128 94 143 1.0 6.0 0.00 0.00 0.00 53 1009.5
20260903002631 94 206 3.0 9.0 0.00 0.00 0.00 52 1009.6
20260903002131 94 184 4.0 9.0 0.00 0.00 0.00 52 1009.5
20260903001635 95 221 1.0 6.0 0.00 0.00 0.00 52 1009.5
20260903001131 95 271 2.0 7.0 0.00 0.00 0.00 51 1009.5
20260903000657 95 226 1.0 7.0 0.00 0.00 0.00 51 1009.5
20260903000133 96 198 4.0 6.0 0.00 0.00 0.00 51 1009.5
20260902235618 96 209 1.0 7.0 0.00 0.00 0.00 51 1009.5
20260902235131 96 165 2.0 7.0 0.00 0.00 0.00 50 1009.6
20260902234619 96 199 1.0 5.0 0.00 0.00 0.00 50 1009.6
20260902234119 97 200 3.0 10.0 0.00 0.00 0.00 49 1009.6
20260902233627 97 188 1.0 10.0 0.00 0.00 0.00 49 1009.6
20260902233132 97 171 3.0 8.0 0.00 0.00 0.00 49 1009.6
20260902232622 96 175 1.0 10.0 0.00 0.00 0.00 49 1009.6
20260902232120 96 210 3.0 10.0 0.00 0.00 0.00 48 1009.6
20260902231625 97 204 6.0 9.0 0.00 0.00 0.00 48 1009.5
20260902231128 97 179 2.0 9.0 0.00 0.00 0.00 48 1009.6
20260902230632 97 258 3.0 9.0 0.00 0.00 0.00 49 1009.6
20260902230136 97 251 4.0 9.0 0.00 0.00 0.00 48 1009.6
20260902225621 97 192 4.0 10.0 0.00 0.00 0.00 48 1009.7
20260902225118 97 210 6.0 10.0 0.00 0.00 0.00 47 1009.7
20260902224627 97 181 2.0 14.0 0.00 0.00 0.00 48 1009.7
20260902224114 97 219 4.0 17.0 0.00 0.00 0.00 49 1009.8
20260902223622 96 168 4.0 17.0 0.00 0.00 0.00 49 1009.7
20260902223140 96 248 5.0 10.0 0.00 0.00 0.00 49 1009.7
20260902222624 96 316 2.0 11.0 0.00 0.00 0.00 51 1009.8
20260902222140 96 215 4.0 11.0 0.00 0.00 0.00 50 1009.8
20260902221625 97 165 3.0 14.0 0.00 0.00 0.00 50 1009.8
20260902221125 97 259 5.0 14.0 0.00 0.00 0.00 49 1009.7
20260902220656 97 293 5.0 10.0 0.00 0.00 0.00 48 1009.8
20260902220154 98 199 6.0 14.0 0.00 0.00 0.00 48 1009.9
20260902215636 98 236 5.0 14.0 0.00 0.00 0.00 49 1009.7
20260902215133 97 150 2.0 19.0 0.00 0.00 0.00 49 1009.7
20260902214621 97 247 6.0 19.0 0.00 0.00 0.00 47 1009.8
20260902214119 98 260 6.0 11.0 0.00 0.00 0.00 48 1009.8
20260902213642 98 216 5.0 9.0 0.00 0.00 0.00 48 1009.8
20260902213121 98 189 5.0 9.0 0.00 0.00 0.00 48 1009.8
20260902212625 97 316 6.0 13.0 0.00 0.00 0.00 48 1009.9
20260902212141 97 185 5.0 13.0 0.00 0.00 0.00 48 1009.9
20260902211622 97 205 6.0 14.0 0.00 0.00 0.00 48 1009.9
20260902211119 97 198 4.0 17.0 0.00 0.00 0.00 48 1010.1
20260902210643 96 127 7.0 17.0 0.00 0.00 0.00 48 1010.0
20260902210123 96 300 3.0 13.0 0.00 0.00 0.00 49 1010.2
20260902205646 96 243 6.0 11.0 0.00 0.00 0.00 49 1010.2
20260902205126 96 223 5.0 14.0 0.00 0.00 0.00 49 1010.2
20260902204630 96 291 7.0 14.0 0.00 0.00 0.00 48 1010.2
20260902204126 96 225 8.0 11.0 0.00 0.00 0.00 49 1010.2
20260902203629 96 211 5.0 15.0 0.00 0.00 0.00 50 1010.3
20260902203128 96 219 9.0 15.0 0.00 0.00 0.00 49 1010.4
20260902202632 96 167 8.0 14.0 0.00 0.00 0.00 49 1010.4
20260902202133 96 232 3.0 11.0 0.00 0.00 0.00 49 1010.4
20260902201636 97 224 3.0 14.0 0.00 0.00 0.00 50 1010.4
20260902201133 96 206 4.0 14.0 0.00 0.00 0.00 50 1010.4
20260902200638 96 211 3.0 13.0 0.00 0.00 0.00 49 1010.5
20260902200153 96 210 5.0 13.0 0.00 0.00 0.00 49 1010.6
20260902195620 96 245 7.0 13.0 0.00 0.00 0.00 48 1010.6
20260902195118 96 160 3.0 13.0 0.00 0.00 0.00 50 1010.6
20260902194621 95 175 3.0 13.0 0.00 0.00 0.00 50 1010.6
20260902194118 95 189 6.0 12.0 0.00 0.00 0.00 50 1010.7
20260902193641 95 173 6.0 10.0 0.00 0.00 0.00 52 1010.7
20260902193118 95 171 2.0 9.0 0.00 0.00 0.00 53 1010.8
20260902192630 95 235 6.0 9.0 0.00 0.00 0.00 52 1010.8
20260902192130 94 293 2.0 8.0 0.00 0.00 0.00 52 1010.8
20260902191618 94 241 4.0 8.0 0.00 0.00 0.00 51 1010.8
20260902191132 94 192 3.0 9.0 0.00 0.00 0.00 51 1010.8
20260902190625 94 252 3.0 9.0 0.00 0.00 0.00 51 1010.9
20260902190120 93 280 5.0 9.0 0.00 0.00 0.00 51 1011.0
20260902185628 93 196 4.0 12.0 0.00 0.00 0.00 50 1011.1
20260902185125 93 221 7.0 12.0 0.00 0.00 0.00 50 1011.1
20260902184629 93 172 2.0 10.0 0.00 0.00 0.00 50 1011.2
20260902184125 93 239 5.0 9.0 0.00 0.00 0.00 51 1011.3
20260902183633 93 291 4.0 9.0 0.00 0.00 0.00 51 1011.4
20260902183131 92 191 3.0 13.0 0.00 0.00 0.00 52 1011.3
20260902182617 93 257 6.0 13.0 0.00 0.00 0.00 51 1011.4
20260902182153 92 115 6.0 13.0 0.00 0.00 0.00 52 1011.5
20260902181635 92 179 3.0 7.0 0.00 0.00 0.00 52 1011.5
20260902181133 92 272 4.0 9.0 0.00 0.00 0.00 51 1011.5
20260902180636 92 275 5.0 12.0 0.00 0.00 0.00 52 1011.7
20260902180121 92 243 6.0 12.0 0.00 0.00 0.00 52 1011.7
20260902175627 91 216 6.0 11.0 0.00 0.00 0.00 51 1011.8
20260902175127 92 260 6.0 10.0 0.00 0.00 0.00 51 1011.8
20260902174629 92 164 7.0 10.0 0.00 0.00 0.00 52 1011.8
20260902174127 91 290 5.0 10.0 0.00 0.00 0.00 53 1011.8
20260902173630 90 177 4.0 10.0 0.00 0.00 0.00 53 1011.8
20260902173128 90 186 5.0 8.0 0.00 0.00 0.00 52 1011.9
20260902172651 90 235 5.0 9.0 0.00 0.00 0.00 54 1012.0
20260902172149 90 238 4.0 9.0 0.00 0.00 0.00 55 1012.0
20260902171631 90 276 6.0 9.0 0.00 0.00 0.00 54 1012.1
20260902171129 89 262 4.0 9.0 0.00 0.00 0.00 55 1012.1
20260902170620 88 167 5.0 9.0 0.00 0.00 0.00 55 1012.1
20260902170139 88 239 2.0 11.0 0.00 0.00 0.00 57 1012.1
20260902165620 88 203 4.0 11.0 0.00 0.00 0.00 56 1012.2
20260902165118 87 177 3.0 6.0 0.00 0.00 0.00 57 1012.1
20260902164622 87 229 1.0 6.0 0.00 0.00 0.00 58 1012.1
20260902164125 87 231 1.0 7.0 0.00 0.00 0.00 57 1012.1
20260902163628 87 287 1.0 7.0 0.00 0.00 0.00 57 1012.1
20260902163124 87 168 4.0 7.0 0.00 0.00 0.00 56 1012.1
20260902162648 87 241 3.0 6.0 0.00 0.00 0.00 58 1012.1
20260902162123 88 96 2.0 7.0 0.00 0.00 0.00 60 1012.1
20260902161626 87 172 1.0 9.0 0.00 0.00 0.00 60 1012.1
20260902161126 86 219 3.0 7.0 0.00 0.00 0.00 60 1012.1
20260902160654 85 201 3.0 7.0 0.00 0.00 0.00 66 1012.2
20260902160132 84 173 3.0 7.0 0.00 0.00 0.00 65 1012.2
20260902155622 84 202 1.0 6.0 0.00 0.00 0.00 65 1012.2
20260902155124 83 158 1.0 5.0 0.00 0.00 0.00 65 1012.2
20260902154632 83 183 2.0 5.0 0.00 0.00 0.00 66 1012.2
20260902154134 84 156 2.0 7.0 0.00 0.00 0.00 64 1012.2
20260902153617 84 220 2.0 7.0 0.00 0.00 0.00 63 1012.3
20260902153119 84 235 2.0 6.0 0.00 0.00 0.00 63 1012.3
20260902152624 84 167 2.0 8.0 0.00 0.00 0.00 62 1012.2
20260902152123 84 146 5.0 10.0 0.00 0.00 0.00 62 1012.2
20260902151625 84 250 3.0 10.0 0.00 0.00 0.00 65 1012.2
20260902151145 83 167 2.0 6.0 0.00 0.00 0.00 66 1012.3
20260902150642 82 250 3.0 6.0 0.00 0.00 0.00 67 1012.2
20260902150120 81 168 3.0 6.0 0.00 0.00 0.00 68 1012.1
20260902145628 81 153 1.0 6.0 0.00 0.00 0.00 69 1012.2
20260902145126 80 206 1.0 6.0 0.00 0.00 0.00 70 1012.2
20260902144629 80 227 0.0 6.0 0.00 0.00 0.00 69 1012.2
20260902144128 80 179 3.0 6.0 0.00 0.00 0.00 69 1012.2
20260902143632 80 182 1.0 4.0 0.00 0.00 0.00 68 1012.3
20260902143132 80 206 1.0 4.0 0.00 0.00 0.00 68 1012.2
20260902142617 80 159 1.0 6.0 0.00 0.00 0.00 66 1012.1
20260902142140 80 239 2.0 6.0 0.00 0.00 0.00 65 1011.9
20260902141647 81 172 2.0 9.0 0.00 0.00 0.00 64 1012.1
20260902141124 81 184 2.0 9.0 0.00 0.00 0.00 64 1012.4
20260902140628 81 207 3.0 6.0 0.00 0.00 0.00 64 1012.4
20260902140131 82 183 4.0 6.0 0.00 0.00 0.00 64 1012.6
20260902135634 82 115 2.0 7.0 0.00 0.00 0.00 66 1012.3
20260902135133 81 142 0.0 8.0 0.00 0.00 0.00 66 1012.3
20260902134618 81 136 2.0 6.0 0.00 0.00 0.00 66 1012.3
20260902134137 80 200 3.0 6.0 0.00 0.00 0.00 66 1012.5
20260902133620 80 101 1.0 6.0 0.00 0.00 0.00 68 1012.4
20260902133121 79 140 2.0 7.0 0.00 0.00 0.00 69 1012.6
20260902132625 78 127 3.0 7.0 0.00 0.00 0.00 70 1012.5
20260902132143 78 144 2.0 7.0 0.00 0.00 0.00 72 1012.6
20260902131628 77 146 2.0 7.0 0.00 0.00 0.00 73 1012.5
20260902131130 76 127 1.0 5.0 0.00 0.00 0.00 75 1012.5
20260902130653 76 139 1.0 5.0 0.00 0.00 0.00 78 1012.6
20260902130129 75 52 0.0 2.0 0.00 0.00 0.00 79 1012.7
20260902125655 75 52 0.0 2.0 0.00 0.00 0.00 79 1012.8
20260902125130 75 52 0.0 0.0 0.00 0.00 0.00 81 1012.8
20260902124633 74 52 0.0 0.0 0.00 0.00 0.00 80 1012.8
20260902124130 74 52 0.0 3.0 0.00 0.00 0.00 81 1012.8
20260902123634 74 52 0.0 3.0 0.00 0.00 0.00 81 1012.8
20260902123128 74 52 1.0 3.0 0.00 0.00 0.00 82 1012.7
20260902122632 74 52 1.0 3.0 0.00 0.00 0.00 82 1012.7
20260902122129 74 52 1.0 3.0 0.00 0.00 0.00 82 1012.7
20260902121636 73 52 0.0 2.0 0.00 0.00 0.00 82 1012.6
20260902121132 73 52 1.0 2.0 0.00 0.00 0.00 82 1012.5
20260902120619 73 52 0.0 2.0 0.00 0.00 0.00 82 1012.4
20260902120117 73 52 0.0 3.0 0.00 0.00 0.00 82 1012.4
20260902115623 73 52 1.0 3.0 0.00 0.00 0.00 82 1012.4
20260902115122 74 52 2.0 3.0 0.00 0.00 0.00 83 1012.4
20260902114625 74 90 2.0 4.0 0.00 0.00 0.00 83 1012.4
20260902114122 74 84 1.0 4.0 0.00 0.00 0.00 83 1012.3
20260902113626 74 68 0.0 4.0 0.00 0.00 0.00 83 1012.4
20260902113145 74 42 2.0 4.0 0.00 0.00 0.00 83 1012.2
20260902112628 74 60 2.0 4.0 0.00 0.00 0.00 83 1012.3
20260902112126 74 68 2.0 8.0 0.00 0.00 0.00 83 1012.3
20260902111634 74 53 3.0 8.0 0.00 0.00 0.00 83 1012.4